Location: Muck Cross
(36.7179°N, 78.3678°W)
Time: 20:05:13
(UTC+00:00)

deb Explorer IX - All Passes

Search period start: 21 March 2023 00:00
Search period end: 31 March 2023 00:00
Orbit: 536 x 1031 km, 38.8° (Epoch: 20 March)

Date Brightness Start Highest point End Pass type
(mag) Time Alt. Az. Time Alt. Az. Time Alt. Az.
21 Mar - 12:48:25 10° SSW 12:51:44 24° SSE 12:55:04 10° E daylight
21 Mar - 14:33:13 10° WSW 14:37:16 86° SSE 14:41:36 10° ENE daylight
21 Mar - 16:19:07 10° W 16:23:18 66° N 16:28:00 10° E daylight
21 Mar - 18:04:52 10° WNW 18:09:23 73° SSW 18:14:35 10° ESE daylight
21 Mar - 19:51:10 10° W 19:55:10 25° SSW 19:59:40 10° SSE daylight
22 Mar - 12:13:48 10° SSW 12:16:55 21° SSE 12:20:01 10° E daylight
22 Mar - 13:58:23 10° WSW 14:02:25 79° SSE 14:06:37 10° ENE daylight
22 Mar - 15:44:18 10° W 15:48:23 65° N 15:52:54 10° E daylight
22 Mar - 17:30:05 10° WNW 17:34:27 79° SSW 17:39:27 10° ESE daylight
22 Mar - 19:16:14 10° W 19:20:15 27° SSW 19:24:44 10° SSE daylight
23 Mar - 11:39:13 10° SSW 11:42:06 18° SSE 11:44:55 10° ESE daylight
23 Mar - 13:23:31 10° WSW 13:27:33 71° SSE 13:31:39 10° ENE daylight
23 Mar - 15:09:27 10° W 15:13:29 65° N 15:17:50 10° E daylight
23 Mar - 16:55:16 10° WNW 16:59:31 86° SSW 17:04:19 10° ESE daylight
23 Mar - 18:41:19 10° W 18:45:18 29° SSW 18:49:46 10° SSE daylight
24 Mar - 11:04:38 10° S 11:07:14 16° SSE 11:09:47 10° ESE daylight
24 Mar - 12:48:38 10° WSW 12:52:41 63° SSE 12:56:42 10° ENE daylight
24 Mar - 14:34:33 10° W 14:38:34 65° N 14:42:47 10° E daylight
24 Mar - 16:20:26 10° WNW 16:24:36 88° NNE 16:29:12 10° ESE daylight
24 Mar - 18:06:24 10° W 18:10:22 32° SSW 18:14:48 10° SE daylight
25 Mar - 10:30:05 10° S 10:32:22 14° SE 10:34:34 10° ESE visible
25 Mar - 12:13:42 10° WSW 12:17:48 56° SSE 12:21:45 10° E daylight
25 Mar - 13:59:36 10° W 14:03:38 67° N 14:07:46 10° ENE daylight
25 Mar - 15:45:34 10° WNW 15:49:39 83° N 15:54:06 10° E daylight
25 Mar - 17:31:29 10° W 17:35:26 35° SSW 17:39:48 10° SE daylight
26 Mar - 09:55:38 10° S 09:57:27 12° SE 09:59:14 10° ESE visible
26 Mar - 11:38:44 10° SW 11:42:53 50° SSE 11:46:49 10° E daylight
26 Mar - 13:24:37 10° W 13:28:42 69° N 13:32:45 10° ENE daylight
26 Mar - 15:10:40 10° WNW 15:14:43 77° N 15:19:00 10° E daylight
26 Mar - 16:56:35 10° W 17:00:29 39° SSW 17:04:48 10° SE daylight
27 Mar - 09:21:24 10° SSE 09:22:31 11° SE 09:23:38 10° SE visible
27 Mar - 11:03:45 10° SW 11:07:58 44° SSE 11:11:52 10° E daylight
27 Mar - 12:49:36 10° W 12:53:44 72° N 12:57:47 10° ENE daylight
27 Mar - 14:35:44 10° WNW 14:39:46 73° N 14:43:56 10° E daylight
27 Mar - 16:21:38 10° W 16:25:33 44° SSW 16:29:47 10° SE daylight
27 Mar - 18:09:57 10° SW 18:10:59 11° SW 18:12:02 10° SSW daylight
28 Mar - 10:28:44 10° SW 10:33:01 40° SSE 10:36:56 10° E visible
28 Mar - 12:14:31 10° W 12:18:47 77° N 12:22:49 10° ENE daylight
28 Mar - 14:00:45 10° WNW 14:04:48 69° N 14:08:53 10° E daylight
28 Mar - 15:46:41 10° W 15:50:36 49° SSW 15:54:46 10° SE daylight
28 Mar - 17:34:18 10° WSW 17:36:02 12° SW 17:37:49 10° SSW daylight
29 Mar - 09:53:41 10° SW 09:58:01 36° SSE 10:01:57 10° E visible
29 Mar - 11:39:23 10° W 11:43:47 82° NNW 11:47:52 10° ENE daylight
29 Mar - 13:25:42 10° WNW 13:29:48 67° N 13:33:50 10° E daylight
29 Mar - 15:11:41 10° W 15:15:39 55° SSW 15:19:45 10° SE daylight
29 Mar - 16:58:54 10° WSW 17:01:04 14° SW 17:03:19 10° S daylight
30 Mar - 09:18:37 10° SW 09:23:01 32° SSE 09:26:58 10° E visible
30 Mar - 11:04:12 10° WSW 11:08:46 88° NNW 11:12:55 10° ENE daylight
30 Mar - 12:50:36 10° W 12:54:48 65° N 12:58:49 10° E daylight
30 Mar - 14:36:40 10° WNW 14:40:40 62° SSW 14:44:44 10° ESE daylight
30 Mar - 16:23:36 10° WSW 16:26:06 16° SW 16:28:42 10° S daylight
